Location: Gairloch Mountain Observatory
(46.1383°N, 60.9640°W)
Time: 12:11:25
(UTC-03:00)

Daily predictions for brighter satellites

Satellite Brightness Start Highest point End
(mag) Time Altitude Azimuth Time Altitude Azimuth Time Altitude Azimuth
Meteor 1-5 Rocket 4.1 20:12:29 10° S 20:17:46 66° E 20:23:14 10° NNE
Cosmos 1346 Rocket 2.8 20:16:09 10° N 20:20:07 81° ENE 20:24:06 10° SSE
Cosmos 1898 Rocket 4.2 20:16:45 10° N 20:21:44 39° ENE 20:26:39 10° SE
Meteor 2-15 Rocket 4.4 20:16:12 10° N 20:22:18 77° E 20:28:22 10° SSE
Cosmos 1025 Rocket 4.4 20:19:01 10° NNW 20:23:10 43° W 20:27:16 10° SSW
Meteor 2-14 Rocket 4.5 20:17:34 10° S 20:23:42 80° E 20:29:52 10° N
H-2A R/B 3.7 20:26:56 10° ESE 20:29:38 17° ENE 20:32:21 10° NNE
Cosmos 1626 Rocket 3.8 20:25:23 10° N 20:29:41 50° ENE 20:33:55 10° SSE
Cosmos 1892 Rocket 4.3 20:25:39 10° NNW 20:30:05 60° W 20:34:29 10° S
Cosmos 2123 Rocket 4.0 20:24:26 10° N 20:30:40 84° E 20:36:51 10° S
Cosmos 1536 4.4 20:27:21 10° SSW 20:31:10 42° WNW 20:35:01 10° N
ATLAS CENTAUR R/B 4.1 20:29:19 10° W 20:33:32 26° NW 20:37:38 10° NNE
USA 215 4.3 20:30:23 10° ENE 20:36:16 38° NNE 20:42:11 10° NW
Cosmos 1455 Rocket 3.0 20:32:20 10° S 20:36:40 89° ESE 20:41:04 10° N
Cosmos 1515 4.2 20:33:42 10° N 20:37:23 41° ENE 20:41:00 10° SSE
Cosmos 1602 Rocket 3.6 20:34:32 10° N 20:39:00 63° ENE 20:43:23 10° SSE
RESURS DK-1 3.2 20:37:24 10° NNW 20:41:14 35° NE 20:44:32 13° ESE
NOSS 7 (D) 4.3 20:38:06 10° SW 20:41:29 84° SE 20:44:55 10° NE
Cosmos 2084 3.3 20:39:29 10° NW 20:43:30 72° NE 20:47:19 12° SE
Cosmos 1066 Rocket 4.4 20:44:39 10° N 20:50:12 54° ENE 20:55:50 10° SSE
Cosmos 220 Rocket 4.0 20:46:09 10° NNW 20:50:24 85° WSW 20:54:37 10° SSE
CZ-4 DEB 2.9 20:50:10 12° SSE 20:52:57 51° ENE 20:56:02 10° N
Cosmos 1743 3.9 20:51:32 14° SE 20:53:57 24° E 20:57:08 10° NE
Cosmos 1697 Rocket 3.1 20:48:56 10° S 20:54:09 40° ESE 20:59:25 10° NE
EO 1 Delta rocket 4.2 20:56:05 10° N 21:00:45 76° WNW 21:05:59 10° SSW
Cosmos 2278 4.0 20:55:45 10° SSW 21:01:25 73° WNW 21:07:09 10° NNE
Cosmos 1153 Rocket 4.4 20:57:07 10° S 21:03:17 75° E 21:09:25 10° NNE
Cosmos 858 Rocket 4.5 20:59:46 10° NNW 21:05:05 77° ENE 21:09:42 14° SSE
Resurs 01 Rocket 4.4 21:04:21 10° SW 21:07:26 18° W 21:10:34 10° NW
ASTEX 1 4.3 21:06:37 10° NNE 21:10:58 29° E 21:13:10 21° SE
ALOS 3.8 21:07:05 10° SSW 21:11:24 36° W 21:15:44 10° NNW
ARGOS 4.3 21:12:01 19° ESE 21:14:37 27° ENE 21:19:06 10° N
Cosmos 1606 Rocket 4.3 21:13:15 21° SE 21:15:21 33° E 21:19:19 10° NNE
Cosmos 2369 4.2 21:09:56 10° SW 21:15:33 64° WNW 21:21:15 10° NNE
Cosmos 1980 Rocket 2.6 21:12:00 10° S 21:17:11 38° ESE 21:22:26 10° NE
Cosmos 1975 3.3 21:13:43 10° SSW 21:17:48 64° W 21:21:54 10° N
Cosmos 1802 Rocket 4.2 21:12:30 10° SSE 21:18:38 51° E 21:24:50 10° NNE
Cosmos 2298 Rocket 4.3 21:13:21 10° NNW 21:18:39 70° WSW 21:23:35 12° S
Cosmos 1842 4.4 21:15:40 10° NNE 21:19:00 26° ENE 21:19:47 24° E
Lacrosse 5 rocket 3.2 21:20:39 10° WNW 21:23:27 20° SW 21:25:57 11° S
Envisat 2.9 21:20:12 16° SSE 21:24:22 81° ENE 21:29:29 10° NNW
Cosmos 1937 Rocket 3.5 21:20:01 10° NNW 21:25:19 90° E 21:29:04 20° SSE
Iridium 4 Rocket 3.9 21:20:24 10° N 21:25:29 61° W 21:30:05 10° SSW
USA 186 4.2 21:23:18 10° SW 21:25:39 20° W 21:27:52 10° NW
MetOp-B 4.4 21:26:17 25° SE 21:29:16 53° ENE 21:34:29 10° N
Cosmos 2016 Rocket 4.1 21:26:36 14° SSE 21:31:42 53° E 21:37:43 10° NNE
Cosmos 990 Rocket 3.9 21:32:38 10° NNW 21:37:56 86° ENE 21:40:49 28° SSE
H-2A R/B 3.3 21:37:13 20° E 21:38:19 22° ENE 21:42:03 10° NNE
Cosmos 1726 Rocket 3.8 21:37:19 34° SE 21:38:45 48° E 21:43:01 10° NNE
Cosmos 1666 3.3 21:41:29 36° E 21:41:29 36° E 21:44:40 10° NNE
CZ-4B R/B 4.5 21:37:39 10° NE 21:41:08 25° E 21:41:08 25° E
Cosmos 2263 Rocket 3.5 21:37:05 10° N 21:41:43 26° NE 21:43:48 21° E
Cosmos 1656 4.0 21:36:50 10° SW 21:42:24 67° WNW 21:47:57 10° NNE
Cosmos 2227 Rocket 4.3 21:38:58 10° NW 21:43:13 22° W 21:47:26 10° SSW
Cosmos 2173 Rocket 4.0 21:37:44 10° S 21:44:07 88° ESE 21:50:30 10° N
Tiangong 1 2.4 21:45:10 10° W 21:47:24 28° SW 21:47:24 28° SW
Cosmos 2322 Rocket 3.2 21:50:52 27° E 21:50:52 27° E 21:54:44 10° NE
Meteor 1-21 4.2 21:44:15 10° NNW 21:50:03 88° W 21:53:35 25° S
Cosmos 1825 Rocket 3.7 21:45:46 10° NNW 21:50:11 70° W 21:52:30 27° S
ERS-1 Rocket 4.0 21:48:08 11° S 21:52:45 44° W 21:57:34 10° NNW
Cosmos 1939 Rocket 4.0 21:49:57 17° SSW 21:52:50 43° W 21:56:51 10° NNW
Cosmos 2098 Rocket 4.0 21:48:51 22° SSE 21:53:14 59° E 21:58:48 10° NNE
Lacrosse 5 2.5 21:50:08 10° WNW 21:54:58 46° SW 21:56:52 31° S
Cosmos 967 Rocket 4.5 21:49:14 10° NW 21:55:36 81° WSW 21:58:35 34° SSE
SL-08 RB Rocket 4.2 21:55:32 41° E 21:56:19 45° ENE 22:00:45 10° N
SPOT 1/Viking Rocket 3.6 21:55:28 40° SE 21:57:11 62° ENE 22:02:21 10° N
Cosmos 2100 Rocket 4.3 21:51:31 10° SSW 21:57:46 69° W 22:03:59 10° N
Cosmos 2297 Rocket 4.2 21:54:11 10° NW 21:58:32 23° WSW 22:02:52 10° SSW
Cosmos 1864 Rocket 4.5 21:57:07 33° SSE 21:59:45 57° E 22:05:45 10° NNE
Cosmos 1953 Rocket 3.7 21:55:59 10° NNW 22:00:27 75° W 22:02:06 38° S
Cosmos 1340 3.2 21:57:03 10° NNW 22:00:48 56° W 22:01:54 39° SSW
Cosmos 2360 4.2 21:56:49 17° S 22:01:15 61° ESE 22:06:54 10° NNE
Meteor 2-9 Rocket 4.1 21:59:42 38° SSE 22:01:39 60° E 22:06:58 10° NNE
SPOT 5 3.0 22:00:31 31° S 22:02:54 71° WSW 22:07:42 10° NNW
Tsikada Rocket 4.0 21:57:26 10° N 22:03:53 70° E 22:06:31 37° SSE
YAOGAN 6 2.6 22:04:21 66° SSW 22:04:45 77° WSW 22:08:29 10° NNW
Cosmos 2061 Rocket 4.3 21:58:28 10° SSW 22:04:45 68° W 22:11:00 10° N
H-2A R/B 2.6 22:03:38 31° SSW 22:05:17 50° W 22:09:21 10° NNW
Cosmos 2227 4.3 22:00:01 10° NNW 22:05:46 74° WSW 22:08:05 37° S
Cosmos 1763 Rocket 3.3 22:01:52 15° SSW 22:06:04 84° ESE 22:11:11 10° NNE
USA 245 4.4 22:04:15 35° SSE 22:07:05 82° ENE 22:13:26 10° NNW
Nimbus 7 Rocket 4.5 22:02:11 10° NNE 22:08:17 83° WNW 22:14:22 10° SSW
Cosmos 1125 Rocket 3.4 22:05:00 10° NNW 22:10:13 70° ENE 22:11:19 53° SE
PSLV R/B 4.1 22:13:17 47° NW 22:13:17 47° NW 22:15:44 10° NNW
MetOp-A 4.4 22:13:18 32° S 22:15:44 63° WSW 22:21:05 10° NNW
Cosmos 405 Rocket 3.7 22:12:07 10° N 22:14:51 36° NE 22:14:51 36° NE
Landsat 7 4.1 22:16:44 50° E 22:16:59 50° ENE 22:21:35 10° N
BREEZE-M DEB (TANK) 4.1 21:54:45 10° WNW 22:17:13 89° NNE 22:19:48 41° ESE
Cosmos 2228 3.1 22:17:46 61° ENE 22:17:46 61° ENE 22:21:37 10° NNE
USA 215 3.4 22:15:53 36° ESE 22:18:42 69° NNE 22:25:13 10° NW
RESURS DK-1 4.2 22:15:46 10° NW 22:19:09 25° WSW 22:20:28 21° SW
Cosmos 1758 Rocket 4.1 22:14:56 10° NNW 22:19:12 54° W 22:20:18 41° SW
deb Chang Zheng 4 4.4 22:15:43 10° N 22:20:03 52° WNW 22:23:15 17° SW
CZ-4C R/B 4.1 22:24:15 47° NE 22:24:15 47° NE 22:28:09 10° N
GP-B 4.4 22:19:57 10° NNE 22:22:48 28° NE 22:22:48 28° NE
Cosmos 1816 Rocket 4.4 22:19:15 10° N 22:25:41 81° E 22:27:33 49° SSE
Cosmos 841 Rocket 3.6 22:24:57 20° SSW 22:28:36 73° WNW 22:33:50 10° NNE
Cosmos 1725 Rocket 4.0 22:28:16 33° SSW 22:31:18 83° W 22:37:35 10° N
Terra 2.2 22:32:33 49° ENE 22:32:33 49° ENE 22:36:55 10° N
CZ-4 R/B 4.1 22:27:44 10° NNE 22:31:46 55° ENE 22:31:46 55° ENE
SL-19 R/B 4.1 22:28:09 10° NNE 22:33:42 84° WNW 22:35:23 46° SSW
Meteor 2-17 Rocket 4.3 22:36:18 60° SSE 22:37:20 73° E 22:43:23 10° NNE
BREEZE-M DEB (TANK) 4.2 22:26:33 10° SW 22:37:28 54° SSE 22:37:28 54° SSE
Cosmos 1697 Rocket 4.2 22:33:01 10° WSW 22:38:11 36° NW 22:43:22 10° NNE
Cosmos 540 Rocket 3.8 22:45:47 51° NE 22:45:47 51° NE 22:49:49 10° NNE
SL-16 R/B 2.1 22:46:17 72° E 22:46:17 72° E 22:51:48 10° NNE
Cosmos 2058 Rocket 4.1 22:45:01 36° WSW 22:46:13 44° WNW 22:50:34 10° N
Cosmos 1844 Rocket 4.2 22:49:41 10° N 22:54:07 23° NE 22:54:49 23° ENE
ARGOS 3.8 22:53:32 42° SW 22:54:36 48° W 22:59:50 10° NNW
Cosmos 372 Rocket 3.9 22:50:18 10° NNW 22:55:17 78° W 22:55:17 78° W
Cosmos 2233 Rocket 3.9 22:55:16 61° SSW 22:56:27 85° W 23:02:45 10° N
Spot 4 4.3 22:57:47 54° NNE 22:57:47 54° NNE 23:01:46 10° N
Cosmos 1980 Rocket 3.5 22:55:56 10° WSW 23:01:12 38° NW 23:06:31 10° NNE
Cosmos 2360 Rocket 3.6 23:04:05 25° ENE 23:04:05 25° ENE 23:06:45 10° NE
CARTOSAT-1 4.3 23:04:38 51° NNW 23:04:38 51° NNW 23:07:56 10° NNW
Cosmos 1707 4.4 23:02:08 10° N 23:04:19 32° N 23:04:19 32° N
H-2A R/B 2.5 23:17:51 51° W 23:17:51 51° W 23:22:16 10° NNW
Cosmos 2034 Rocket 4.5 23:19:07 47° ENE 23:19:07 47° ENE 23:24:07 10° NNE
Meteor 2-5 Rocket 3.9 23:12:27 10° NNW 23:18:21 68° W 23:18:28 68° WSW
CZ-4B R/B 4.4 23:16:02 10° N 23:20:27 39° WNW 23:21:05 37° W
Cosmos 2263 Rocket 2.6 23:20:34 10° NNW 23:25:29 56° W 23:25:29 56° W
Cosmos 2322 Rocket 2.9 23:32:37 42° W 23:33:47 49° WNW 23:39:16 10° NNE
Meteor 1-24 Rocket 3.9 23:31:46 10° NNW 23:37:21 74° NW 23:37:21 74° NW
GEOS 3 Rocket 4.1 23:35:28 10° NNE 23:39:43 55° N 23:39:43 55° N
Cosmos 1464 Rocket 4.0 23:41:24 81° NW 23:41:24 81° NW 23:47:33 10° N
